SCP
0 0 0 0 0 0 0 0 0 0 0 0 0 0 0 0 -0 -0 -0 -0 -0 -0 -0 -0 -0 -0 0 -0 0 0 0 0 0 0 0 0 0 0 0 0 0 0 0 0
0 0 0 0 0 0 0 0 0 0 0 0 0 0 0 -0 -0 -0 0 -0 -0 -0 -0 -0 0 0 0 0 0 0 0 -0 0 0 0 0 0 0 0 0 0 0 0 0
0 0 0 0 0 0 0 0 0 0 0 0 0 0 0 0 0 -0 -0 -0 0 -0 -0 -0 -0 0 -0 -0 0 0 0 0 -0 0 0 0 0 0 0 0 0 0 0 0
0 0 0 0 0 0 0 0 0 0 0 0 0 0 0 0 0 0 -0 -0 -0 0 -0 -0 0 -0 0 -0 -0 0 0 0 0 0 0 0 0 0 0 0 0 0 0 0
0 0 0 0 0 0 0 0 0 0 0 0 0 0 0 0 0 0 -0 -0 -0 -0 -0 -0 -0 0 0 0 -0 0 0 -0 -0 0 0 0 0 0 0 0 0 0 0 0
0 0 0 0 0 0 0 0 0 0 0 0 0 0 0 0 0 0 0 -0 -0 -0 -0 -0 -0 -0 0 -0 -0 0 0 0 0 0 0 0 0 0 0 0 0 0 0 0
0 0 0 0 0 0 0 0 0 0 0 0 0 0 0 0 0 0 -0 -0 0 -0 -0 -0 -0 -0 -0 0 -0 -0 0 0 0 -0 0 0 0 0 0 0 0 0 0 0
0 0 0 0 0 0 0 0 0 0 0 0 0 0 0 0 0 0 0 0 0 -0 -0 -0 0 -0 -0 0 -0 0 0 0 0 -0 0 0 0 0 0 0 0 0 0 0
0 0 0 0 0 0 0 0 0 0 0 0 0 0 0 0 0 0 -0 -0 -0 0 0 0 -0 0 0 0 0 0 0 0 0 -0 0 0 0 0 0 0 0 0 0 0
0 0 0 0 0 0 0 0 0 0 0 0 0 0 0 0 0 0 0 -0 -0 0 0 -0 0 0 0 0 0 0 0 0 0 0 0 0 0 0 0 0 0 0 0 0
0 0 0 0 0 0 0 0 0 0 0 0 0 0 0 0 0 0 -0 -0 -0 -0 0 0 0 0 0 0 0 0 0 0 0 0 0 0 0 0 0 0 0 0 0 0
0 0 0 0 0 0 0 0 0 0 0 0 -0 0 0 0 0 0 0 -0 -0 0 -0 -0 0 0 0 0 0 0 0 0 0 0 0 0 0 0 0 0 0 0 0 0
0 0 0 0 0 0 0 0 0 0 0 0 0 0 0 0 0 0 0 0 -0 0 0 -0 0 0 0 0 0 0 0 0 0 0 0 0 0 0 0 0 0 0 0 0
0 0 0 0 0 0 0 0 0 0 0 0 0 0 0 0 0 0 0 0 0 0 -0 0 0 0 0 0 0 0 0 0 0 0 0 0 0 0 0 0 0 0 0 0
0 0 0 0 0 0 0 0 0 0 0 0 0 0 0 0 0 0 0 -0 0 0 0 0 0 0 0 -0 -0 0 0 0 0 0 0 0 0 0 0 0 0 0 0 0
0 0 0 0 0 0 0 0 0 0 0 0 0 0 0 0 0 0 0 0 0 0 0 0 0 0 0 0 -0 -0 -0 0 0 0 0 0 0 0 0 0 0 0 0 0
0 0 0 0 0 0 0 0 0 0 0 0 0 0 0 0 0 0 0 0 0 0 0 -0 0 -0 -0 0 -0 -0 -0 -0 0 0 0 0 0 0 0 0 0 0 0 0
0 0 0 0 0 0 0 0 0 0 0 0 0 0 0 0 0 0 0 0 0 0 0 0 -0 -0 -0 -0 0 0 -0 -0 0 0 0 0 0 0 0 0 0 0 0 0
0 0 0 0 0 0 0 0 0 0 0 0 0 0 0 0 0 0 0 0 0 0 0 0 0 -0 0 -0 -0 -0 0 0 -0 0 0 0 0 0 0 0 0 0 0 0
0 0 0 0 0 0 0 0 0 0 0 0 0 0 0 0 0 0 -0 0 0 0 0 0 0 -0 -0 0 -0 -0 -0 -0 0 0 0 0 0 0 0 0 0 0 0 0
0 0 0 0 0 0 0 0 0 0 0 0 0 0 0 0 0 0 -0 0 0 0 0 0 0 0 0 -0 0 -0 0 -0 -0 0 0 0 0 0 0 0 0 0 0 0
0 0 0 0 0 0 0 0 0 0 0 0 0 0 0 0 0 0 0 0 0 0 0 0 0 0 0 0 -0 -0 0 0 0 0 0 0 0 0 0 0 0 0 0 0
0 0 0 0 0 0 0 0 0 0 0 0 0 0 0 0 0 0 0 0 0 -0 0 0 0 0 0 -0 -0 -0 -0 -0 0 0 0 0 0 0 0 0 0 0 0 0
0 0 0 0 0 0 0 0 0 0 0 0 0 0 0 0 0 0 0 0 0 0 0 0 0 0 0 -0 -0 -0 0 -0 -0 0 0 0 0 0 0 0 0 0 0 0
0 0 0 0 0 0 0 0 0 0 0 0 0 0 0 0 0 0 0 0 0 0 0 0 -0 0 0 0 -0 -0 -0 0 -0 -0 0 0 0 0 0 0 0 0 0 0
0 0 0 0 0 0 0 0 0 0 0 0 0 0 0 0 0 0 0 0 0 0 0 -0 0 0 0 0 0 0 0 -0 -0 0 0 0 -0 0 0 0 0 0 0 0
0 0 0 -0 0 0 0 0 0 0 0 0 0 0 0 0 0 0 0 0 0 0 0 0 0 0 -0 -0 0 0 0 0 0 0 -0 -0 0 0 -0 0 0 0 0 0
Wind_Speed_500mb
49 55 59 57 51 49 35 14 7 9 13 10 7 12 30 33 36 30 35 24 33 33 31 29 35 12 8 4 24 26 32 13 24 55 57 59 60 55 62 32 45 34 23 7
51 56 58 57 44 40 31 21 10 1 9 9 15 31 31 25 24 27 28 18 28 35 29 17 12 13 18 16 18 11 16 21 26 16 38 57 63 68 53 55 33 38 17 7
52 55 57 55 39 31 19 18 8 2 7 11 17 28 29 29 29 32 21 33 25 26 29 6 14 17 2 15 17 34 23 29 34 11 25 45 55 65 60 57 33 36 37 23
53 55 54 50 35 22 19 10 13 10 11 20 24 30 30 29 28 15 40 22 25 23 30 35 28 12 24 2 11 11 10 34 49 14 46 45 50 55 49 62 40 32 36 28
51 55 51 42 33 20 11 15 13 25 38 19 22 23 21 28 34 21 26 24 35 31 29 29 35 31 23 13 14 10 17 19 33 34 41 65 47 62 55 47 54 35 24 37
47 55 53 37 27 19 9 14 14 10 26 14 16 18 27 39 37 21 26 28 30 34 28 36 45 44 37 30 27 25 16 12 12 32 40 51 28 38 55 50 48 34 25 13
43 49 53 41 22 10 14 17 16 12 17 21 20 32 31 34 35 32 41 33 26 32 43 48 51 47 45 39 34 27 25 20 8 7 24 20 18 17 47 39 39 32 28 9
47 41 49 46 25 12 11 21 11 9 15 37 27 30 37 41 42 34 33 32 26 39 30 19 19 20 22 34 34 27 20 8 9 7 21 24 9 13 8 42 25 20 8 5
54 38 45 45 33 17 17 19 19 14 17 10 43 33 32 24 25 28 37 39 38 17 10 9 11 5 2 9 12 10 10 9 7 13 18 14 15 13 12 10 22 16 11 12
56 42 43 44 39 21 18 23 24 15 19 36 31 29 18 26 20 13 36 45 35 12 7 3 5 6 14 1 4 7 5 4 15 23 14 12 20 22 11 21 12 12 16 17
51 47 45 47 41 29 19 19 27 20 22 53 28 22 35 36 30 8 40 27 15 14 12 8 8 7 8 8 6 7 6 7 12 9 2 9 36 7 8 15 15 18 16 17
53 49 49 48 48 34 22 25 27 31 26 48 47 42 33 30 28 24 10 15 28 10 7 9 6 4 7 9 2 6 1 7 5 5 3 28 39 35 30 23 20 20 17 17
54 56 49 44 54 39 25 24 25 28 27 40 20 18 8 10 15 21 7 8 7 6 9 11 6 4 5 6 6 7 5 16 5 4 18 12 30 32 25 26 22 22 23 19
54 58 52 53 54 41 23 26 16 21 13 8 17 13 13 6 19 18 18 26 10 25 16 11 6 4 6 5 3 7 9 14 11 1 24 20 33 29 21 24 23 24 24 25
54 59 56 59 48 33 23 25 24 26 15 12 31 30 4 9 20 17 16 14 23 11 9 8 6 8 5 4 4 7 6 8 7 4 10 15 26 26 25 28 28 26 25 25
53 60 59 57 43 30 15 9 13 24 22 8 8 19 6 4 5 6 8 9 14 12 11 14 7 7 13 3 5 10 25 19 16 11 26 25 20 19 25 26 27 26 25 24
52 57 61 49 26 13 11 8 9 16 11 6 10 6 9 12 8 5 9 10 9 8 10 7 10 13 18 10 8 30 24 25 21 17 25 25 21 28 23 23 25 26 24 21
52 57 52 31 12 10 12 22 16 9 8 8 6 9 5 11 7 7 3 9 9 8 8 11 10 11 8 7 22 23 22 25 15 27 23 25 35 24 23 22 25 26 24 26
50 50 25 5 2 8 9 16 18 16 12 7 8 6 4 8 3 10 7 8 4 3 2 3 8 7 8 11 9 13 17 16 21 24 22 24 25 31 30 26 26 27 27 29
35 18 8 8 2 16 16 6 5 7 10 13 11 12 6 10 7 5 10 9 6 3 3 2 4 5 7 16 18 13 13 11 16 21 30 36 39 36 34 33 27 27 28 29
20 14 8 8 16 8 8 8 11 13 9 15 19 14 10 2 6 3 5 5 8 4 5 4 0 4 10 17 23 19 16 15 19 22 22 22 27 33 32 31 29 29 30 32
29 26 30 16 4 12 10 9 9 9 7 19 14 4 10 3 1 1 5 4 7 6 3 4 3 6 6 12 18 23 26 28 29 27 31 30 30 26 29 32 31 30 29 32
18 6 7 7 10 5 12 11 8 6 13 13 10 7 1 6 5 5 1 3 8 18 6 3 5 12 9 9 9 14 22 23 26 30 33 37 35 34 33 32 35 35 34 35
9 7 9 11 11 12 12 13 8 4 4 12 9 8 8 8 7 5 6 8 1 5 5 5 6 11 9 8 9 11 15 20 23 28 33 36 35 38 38 38 35 37 40 43
10 10 11 15 25 18 13 18 10 9 11 9 12 13 9 6 6 6 4 6 7 9 6 3 6 7 8 8 12 11 12 17 20 25 29 31 31 33 36 39 40 43 46 47
12 17 14 25 16 20 24 23 22 19 16 9 11 8 5 9 6 6 9 5 9 5 6 13 3 6 9 7 9 7 10 12 14 19 22 24 31 29 32 34 40 45 51 53
13 17 31 44 35 24 25 20 18 20 24 14 7 7 9 2 7 5 6 7 5 15 19 9 2 6 10 10 9 9 9 9 11 14 17 17 22 30 26 34 41 43 47 53
Wind_Direction_500mb
360 355 352 350 348 348 5 316 283 356 348 300 290 302 328 306 293 304 306 337 300 310 305 282 290 226 344 269 313 292 272 253 263 222 210 215 215 214 203 214 208 235 213 155
1 357 354 352 358 356 349 309 295 293 348 348 330 322 325 338 328 312 307 295 303 306 309 306 313 340 50 354 309 316 357 235 257 222 226 206 215 209 203 220 220 205 215 185
359 358 356 353 3 358 3 311 302 66 330 351 316 323 312 328 332 323 315 308 310 294 300 256 275 305 92 355 295 288 294 260 254 240 217 196 210 202 203 201 217 187 221 129
358 359 356 353 5 16 2 328 20 347 306 327 319 301 292 317 329 324 301 298 299 295 308 311 319 298 303 214 247 252 261 248 243 258 300 281 209 208 199 193 202 217 183 197
356 359 358 352 3 13 358 338 349 328 303 293 310 303 309 331 325 327 312 326 318 311 295 304 302 314 312 281 244 241 280 272 262 248 287 284 191 211 197 197 208 208 171 200
350 354 359 355 357 17 335 331 320 321 292 285 302 308 321 310 311 305 290 302 313 304 318 315 302 296 288 278 288 297 288 326 177 242 256 268 206 211 188 195 199 210 195 204
343 348 353 357 349 346 304 304 313 302 296 318 317 304 298 306 317 301 301 308 300 309 313 304 283 259 257 255 256 247 267 299 282 246 233 229 196 228 194 189 195 211 231 178
344 341 349 351 343 310 307 295 277 293 290 313 295 331 322 319 320 317 316 324 319 313 306 292 267 241 230 231 234 242 241 278 273 212 209 94 190 81 37 194 83 28 328 45
342 338 346 347 340 300 299 293 275 274 295 284 325 316 310 311 320 309 326 333 326 305 298 330 318 316 125 294 149 30 276 224 283 274 227 188 11 26 22 8 112 51 27 48
341 334 340 346 341 312 282 289 287 251 274 283 306 311 313 307 308 287 300 335 315 298 294 262 290 301 334 160 195 231 259 186 240 240 215 120 329 0 156 210 82 45 42 43
336 332 326 337 340 320 273 282 278 256 275 293 291 299 291 287 273 276 309 316 13 322 354 343 346 328 327 323 49 348 280 302 184 270 188 92 348 54 5 63 84 47 37 32
337 330 323 320 330 326 274 280 262 271 263 277 294 286 283 284 296 299 274 287 319 327 319 10 301 296 329 313 65 327 110 354 358 34 64 299 61 63 50 37 45 32 19 19
335 334 327 319 323 318 270 252 276 293 289 311 275 281 273 287 294 281 254 291 300 303 324 312 297 326 308 322 36 319 33 358 28 330 356 73 57 45 38 31 20 13 12 14
330 332 327 325 321 312 279 250 262 249 290 279 318 286 338 255 347 336 297 268 316 293 297 268 273 281 202 333 7 24 349 353 352 62 12 341 15 21 26 13 7 7 7 4
328 328 324 328 321 306 284 261 233 236 258 302 307 305 236 292 291 289 297 280 260 279 273 249 286 317 342 186 248 62 43 350 9 18 345 308 322 349 12 358 357 354 354 354
326 325 321 325 314 295 269 265 241 204 222 270 298 329 261 344 357 308 233 241 231 251 282 273 317 275 329 284 88 54 27 6 351 314 322 310 329 326 356 348 348 345 341 347
326 323 321 324 312 253 217 351 120 201 204 241 280 279 240 349 275 272 237 240 249 257 287 294 308 1 315 357 46 15 1 352 333 3 347 335 336 334 331 343 343 342 339 347
326 323 320 322 298 200 231 251 256 215 261 247 277 289 334 342 1 306 315 266 249 247 289 316 336 325 5 38 9 351 346 351 359 348 341 317 321 325 332 337 337 340 341 341
327 320 323 339 154 243 228 268 265 241 227 262 228 265 311 344 13 323 279 258 248 336 4 16 304 17 46 334 333 344 343 346 328 343 353 353 343 328 333 332 333 332 332 332
337 346 284 194 156 262 292 291 210 208 218 229 256 270 323 308 345 304 347 296 274 239 78 276 355 46 24 27 44 27 33 22 2 346 359 356 355 350 342 334 334 331 328 325
348 319 279 291 296 290 244 240 218 182 223 221 235 280 312 92 315 260 304 294 286 279 177 267 152 86 345 4 32 33 16 16 8 7 359 356 351 352 344 339 340 337 332 328
305 287 281 288 228 216 231 220 207 214 241 181 251 96 309 49 205 266 271 259 310 281 6 233 137 107 100 30 17 12 15 18 11 4 350 360 354 347 354 352 346 344 337 334
290 282 260 223 223 247 222 211 223 240 183 220 215 227 107 160 199 221 110 259 244 324 275 253 108 79 48 26 8 7 356 13 14 4 359 3 2 357 357 352 360 355 352 342
264 247 254 221 201 229 218 242 263 51 257 247 256 272 161 206 196 192 206 232 201 257 250 203 102 55 20 353 344 356 356 3 9 1 2 7 4 8 13 3 3 358 353 348
262 223 244 229 234 265 241 246 258 233 250 259 244 245 220 189 233 215 228 223 239 214 224 214 51 14 339 337 339 330 355 1 358 1 2 5 356 358 4 14 14 11 5 3
242 236 257 253 259 253 232 229 247 243 216 221 262 265 245 218 199 182 224 229 226 231 208 255 37 3 323 310 333 334 349 351 351 355 357 360 1 352 352 358 2 3 5 4
232 242 242 260 274 273 287 287 242 235 217 227 196 239 233 219 227 213 192 218 214 207 224 241 175 299 303 295 301 312 331 334 348 354 350 356 359 360 357 356 358 359 357 360
Wind_Speed_850mb
49 55 59 57 51 49 35 14 7 9 13 10 7 12 30 33 36 30 35 24 33 33 31 29 35 12 8 4 24 26 32 13 24 55 57 59 60 55 62 32 45 34 23 7
51 56 58 57 44 40 31 21 10 1 9 9 15 31 31 25 24 27 28 18 28 35 29 17 12 13 18 16 18 11 16 21 26 16 38 57 63 68 53 55 33 38 17 7
52 55 57 55 39 31 19 18 8 2 7 11 17 28 29 29 29 32 21 33 25 26 29 6 14 17 2 15 17 34 23 29 34 11 25 45 55 65 60 57 33 36 37 23
53 55 54 50 35 22 19 10 13 10 11 20 24 30 30 29 28 15 40 22 25 23 30 35 28 12 24 2 11 11 10 34 49 14 46 45 50 55 49 62 40 32 36 28
51 55 51 42 33 20 11 15 13 25 38 19 22 23 21 28 34 21 26 24 35 31 29 29 35 31 23 13 14 10 17 19 33 34 41 65 47 62 55 47 54 35 24 37
47 55 53 37 27 19 9 14 14 10 26 14 16 18 27 39 37 21 26 28 30 34 28 36 45 44 37 30 27 25 16 12 12 32 40 51 28 38 55 50 48 34 25 13
43 49 53 41 22 10 14 17 16 12 17 21 20 32 31 34 35 32 41 33 26 32 43 48 51 47 45 39 34 27 25 20 8 7 24 20 18 17 47 39 39 32 28 9
47 41 49 46 25 12 11 21 11 9 15 37 27 30 37 41 42 34 33 32 26 39 30 19 19 20 22 34 34 27 20 8 9 7 21 24 9 13 8 42 25 20 8 5
54 38 45 45 33 17 17 19 19 14 17 10 43 33 32 24 25 28 37 39 38 17 10 9 11 5 2 9 12 10 10 9 7 13 18 14 15 13 12 10 22 16 11 12
56 42 43 44 39 21 18 23 24 15 19 36 31 29 18 26 20 13 36 45 35 12 7 3 5 6 14 1 4 7 5 4 15 23 14 12 20 22 11 21 12 12 16 17
51 47 45 47 41 29 19 19 27 20 22 53 28 22 35 36 30 8 40 27 15 14 12 8 8 7 8 8 6 7 6 7 12 9 2 9 36 7 8 15 15 18 16 17
53 49 49 48 48 34 22 25 27 31 26 48 47 42 33 30 28 24 10 15 28 10 7 9 6 4 7 9 2 6 1 7 5 5 3 28 39 35 30 23 20 20 17 17
54 56 49 44 54 39 25 24 25 28 27 40 20 18 8 10 15 21 7 8 7 6 9 11 6 4 5 6 6 7 5 16 5 4 18 12 30 32 25 26 22 22 23 19
54 58 52 53 54 41 23 26 16 21 13 8 17 13 13 6 19 18 18 26 10 25 16 11 6 4 6 5 3 7 9 14 11 1 24 20 33 29 21 24 23 24 24 25
54 59 56 59 48 33 23 25 24 26 15 12 31 30 4 9 20 17 16 14 23 11 9 8 6 8 5 4 4 7 6 8 7 4 10 15 26 26 25 28 28 26 25 25
53 60 59 57 43 30 15 9 13 24 22 8 8 19 6 4 5 6 8 9 14 12 11 14 7 7 13 3 5 10 25 19 16 11 26 25 20 19 25 26 27 26 25 24
52 57 61 49 26 13 11 8 9 16 11 6 10 6 9 12 8 5 9 10 9 8 10 7 10 13 18 10 8 30 24 25 21 17 25 25 21 28 23 23 25 26 24 21
52 57 52 31 12 10 12 22 16 9 8 8 6 9 5 11 7 7 3 9 9 8 8 11 10 11 8 7 22 23 22 25 15 27 23 25 35 24 23 22 25 26 24 26
50 50 25 5 2 8 9 16 18 16 12 7 8 6 4 8 3 10 7 8 4 3 2 3 8 7 8 11 9 13 17 16 21 24 22 24 25 31 30 26 26 27 27 29
35 18 8 8 2 16 16 6 5 7 10 13 11 12 6 10 7 5 10 9 6 3 3 2 4 5 7 16 18 13 13 11 16 21 30 36 39 36 34 33 27 27 28 29
20 14 8 8 16 8 8 8 11 13 9 15 19 14 10 2 6 3 5 5 8 4 5 4 0 4 10 17 23 19 16 15 19 22 22 22 27 33 32 31 29 29 30 32
29 26 30 16 4 12 10 9 9 9 7 19 14 4 10 3 1 1 5 4 7 6 3 4 3 6 6 12 18 23 26 28 29 27 31 30 30 26 29 32 31 30 29 32
18 6 7 7 10 5 12 11 8 6 13 13 10 7 1 6 5 5 1 3 8 18 6 3 5 12 9 9 9 14 22 23 26 30 33 37 35 34 33 32 35 35 34 35
9 7 9 11 11 12 12 13 8 4 4 12 9 8 8 8 7 5 6 8 1 5 5 5 6 11 9 8 9 11 15 20 23 28 33 36 35 38 38 38 35 37 40 43
10 10 11 15 25 18 13 18 10 9 11 9 12 13 9 6 6 6 4 6 7 9 6 3 6 7 8 8 12 11 12 17 20 25 29 31 31 33 36 39 40 43 46 47
12 17 14 25 16 20 24 23 22 19 16 9 11 8 5 9 6 6 9 5 9 5 6 13 3 6 9 7 9 7 10 12 14 19 22 24 31 29 32 34 40 45 51 53
13 17 31 44 35 24 25 20 18 20 24 14 7 7 9 2 7 5 6 7 5 15 19 9 2 6 10 10 9 9 9 9 11 14 17 17 22 30 26 34 41 43 47 53
Wind_Direction_850mb
360 355 352 350 348 348 5 316 283 356 348 300 290 302 328 306 293 304 306 337 300 310 305 282 290 226 344 269 313 292 272 253 263 222 210 215 215 214 203 214 208 235 213 155
1 357 354 352 358 356 349 309 295 293 348 348 330 322 325 338 328 312 307 295 303 306 309 306 313 340 50 354 309 316 357 235 257 222 226 206 215 209 203 220 220 205 215 185
359 358 356 353 3 358 3 311 302 66 330 351 316 323 312 328 332 323 315 308 310 294 300 256 275 305 92 355 295 288 294 260 254 240 217 196 210 202 203 201 217 187 221 129
358 359 356 353 5 16 2 328 20 347 306 327 319 301 292 317 329 324 301 298 299 295 308 311 319 298 303 214 247 252 261 248 243 258 300 281 209 208 199 193 202 217 183 197
356 359 358 352 3 13 358 338 349 328 303 293 310 303 309 331 325 327 312 326 318 311 295 304 302 314 312 281 244 241 280 272 262 248 287 284 191 211 197 197 208 208 171 200
350 354 359 355 357 17 335 331 320 321 292 285 302 308 321 310 311 305 290 302 313 304 318 315 302 296 288 278 288 297 288 326 177 242 256 268 206 211 188 195 199 210 195 204
343 348 353 357 349 346 304 304 313 302 296 318 317 304 298 306 317 301 301 308 300 309 313 304 283 259 257 255 256 247 267 299 282 246 233 229 196 228 194 189 195 211 231 178
344 341 349 351 343 310 307 295 277 293 290 313 295 331 322 319 320 317 316 324 319 313 306 292 267 241 230 231 234 242 241 278 273 212 209 94 190 81 37 194 83 28 328 45
342 338 346 347 340 300 299 293 275 274 295 284 325 316 310 311 320 309 326 333 326 305 298 330 318 316 125 294 149 30 276 224 283 274 227 188 11 26 22 8 112 51 27 48
341 334 340 346 341 312 282 289 287 251 274 283 306 311 313 307 308 287 300 335 315 298 294 262 290 301 334 160 195 231 259 186 240 240 215 120 329 0 156 210 82 45 42 43
336 332 326 337 340 320 273 282 278 256 275 293 291 299 291 287 273 276 309 316 13 322 354 343 346 328 327 323 49 348 280 302 184 270 188 92 348 54 5 63 84 47 37 32
337 330 323 320 330 326 274 280 262 271 263 277 294 286 283 284 296 299 274 287 319 327 319 10 301 296 329 313 65 327 110 354 358 34 64 299 61 63 50 37 45 32 19 19
335 334 327 319 323 318 270 252 276 293 289 311 275 281 273 287 294 281 254 291 300 303 324 312 297 326 308 322 36 319 33 358 28 330 356 73 57 45 38 31 20 13 12 14
330 332 327 325 321 312 279 250 262 249 290 279 318 286 338 255 347 336 297 268 316 293 297 268 273 281 202 333 7 24 349 353 352 62 12 341 15 21 26 13 7 7 7 4
328 328 324 328 321 306 284 261 233 236 258 302 307 305 236 292 291 289 297 280 260 279 273 249 286 317 342 186 248 62 43 350 9 18 345 308 322 349 12 358 357 354 354 354
326 325 321 325 314 295 269 265 241 204 222 270 298 329 261 344 357 308 233 241 231 251 282 273 317 275 329 284 88 54 27 6 351 314 322 310 329 326 356 348 348 345 341 347
326 323 321 324 312 253 217 351 120 201 204 241 280 279 240 349 275 272 237 240 249 257 287 294 308 1 315 357 46 15 1 352 333 3 347 335 336 334 331 343 343 342 339 347
326 323 320 322 298 200 231 251 256 215 261 247 277 289 334 342 1 306 315 266 249 247 289 316 336 325 5 38 9 351 346 351 359 348 341 317 321 325 332 337 337 340 341 341
327 320 323 339 154 243 228 268 265 241 227 262 228 265 311 344 13 323 279 258 248 336 4 16 304 17 46 334 333 344 343 346 328 343 353 353 343 328 333 332 333 332 332 332
337 346 284 194 156 262 292 291 210 208 218 229 256 270 323 308 345 304 347 296 274 239 78 276 355 46 24 27 44 27 33 22 2 346 359 356 355 350 342 334 334 331 328 325
348 319 279 291 296 290 244 240 218 182 223 221 235 280 312 92 315 260 304 294 286 279 177 267 152 86 345 4 32 33 16 16 8 7 359 356 351 352 344 339 340 337 332 328
305 287 281 288 228 216 231 220 207 214 241 181 251 96 309 49 205 266 271 259 310 281 6 233 137 107 100 30 17 12 15 18 11 4 350 360 354 347 354 352 346 344 337 334
290 282 260 223 223 247 222 211 223 240 183 220 215 227 107 160 199 221 110 259 244 324 275 253 108 79 48 26 8 7 356 13 14 4 359 3 2 357 357 352 360 355 352 342
264 247 254 221 201 229 218 242 263 51 257 247 256 272 161 206 196 192 206 232 201 257 250 203 102 55 20 353 344 356 356 3 9 1 2 7 4 8 13 3 3 358 353 348
262 223 244 229 234 265 241 246 258 233 250 259 244 245 220 189 233 215 228 223 239 214 224 214 51 14 339 337 339 330 355 1 358 1 2 5 356 358 4 14 14 11 5 3
242 236 257 253 259 253 232 229 247 243 216 221 262 265 245 218 199 182 224 229 226 231 208 255 37 3 323 310 333 334 349 351 351 355 357 360 1 352 352 358 2 3 5 4
232 242 242 260 274 273 287 287 242 235 217 227 196 239 233 219 227 213 192 218 214 207 224 241 175 299 303 295 301 312 331 334 348 354 350 356 359 360 357 356 358 359 357 360